Weather Roundup
Issued by NWS

Home | Current Version | Previous Version | Graphics & Text | Print | Product List | Glossary Off
Versions: 1 2 3 4 5 6 7 8 9 10 11 12 13 14 15 16 17 18 19 20 21 22 23 24 25 26 27 28 29 30 31 32 33 34 35 36 37 38 39 40 41 42 43 44 45 46 47 48 49 50

000
NZUS93 KARX 252059
HRRWXR

CURRENT HOURLY OBSERVATIONS ACROSS
MUCH OF THE UPPER MISSISSIPPI VALLEY
NATIONAL WEATHER SERVICE LA CROSSE WI
400 PM CDT SAT APR 25 2015


...SOUTHEAST MINNESOTA...


CITY           SKY/WX    TMP DP  RH WIND       PRES   REMARKS
ROCHESTER      CLOUDY    53  39  59 E16       29.83R
ROCHESTER/MAYO CLOUDY    52  37  56 E12       29.83S
WINONA         PTSUNNY   55  34  44 E9        29.82F
AUSTIN         CLOUDY    52  39  62 E15       29.81R
ALBERT LEA     CLOUDY    52  41  66 NE20      29.81R
DODGE CENTER   CLOUDY    52  39  62 E16       29.82S
PRESTON        CLOUDY    51  36  57 NE10G20   29.82R
OWATONNA       CLOUDY    54  37  54 E14       29.83S
FARIBAULT      CLOUDY    54  39  58 E10G16    29.84R
$$

...ELSEWHERE IN MINNESOTA...


CITY           SKY/WX    TMP DP  RH WIND       PRES   REMARKS
MINNEAPOLIS    MOSUNNY   60  29  30 E14G24    29.84R
INTNL FALLS    SUNNY     54  25  32 E13       29.96F
DULUTH         MOSUNNY   48  20  32 E15G25    29.96S
RED WING       PTSUNNY   59  27  29 E8G18     29.83R
REDWOOD FALLS  CLOUDY    58  39  49 E13G21    29.83R
MANKATO        CLOUDY    55  37  50 E14G22    29.83F
WORTHINGTON    PTSUNNY   55  39  54 E15       29.80S
FAIRMONT       PTSUNNY   55  37  50 E15       29.81R
$$

...SOUTHWEST WISCONSIN...


CITY           SKY/WX    TMP DP  RH WIND       PRES   REMARKS
LA CROSSE      CLOUDY    56  30  37 SE7       29.82S
PRAIRIE DU CHI CLOUDY    52  35  52 E12G25    29.78R
BOSCOBEL       CLOUDY    53  36  52 NE9G17    29.80R
LONE ROCK      NOT AVBL
PLATTEVILLE    CLOUDY    50  39  66 NE21G28   29.74S
FORT MC COY    CLOUDY    57  23  26 E12G21    29.82S
VIROQUA        CLOUDY    50  32  50 NE13      29.81S
WIS DELLS      CLOUDY    49  24  36 E16G22    29.82S
$$

...ELSEWHERE IN WISCONSIN...


CITY           SKY/WX    TMP DP  RH WIND       PRES   REMARKS
MILWAUKEE      CLOUDY    40  30  67 N22       29.83F WCI  30
MADISON        CLOUDY    49  35  58 NE16      29.81S
GREEN BAY      MOSUNNY   48  21  34 NE17      29.89S
EAU CLAIRE     NOT AVBL
BLACK RVR FLS  FAIR      58  15  19 NE9       29.82S
MEDFORD        SUNNY     57  22  25 E10G16    29.84S
WAUSAU         CLOUDY    57  15  19 E14G23    29.83S
WIS RAPIDS     SUNNY     56  11  16 E16G25    29.86R
MARSHFIELD     MOSUNNY   58  21  24 E14       29.84S
RICE LAKE      SUNNY     60  18  19 E8G16     29.87S
$$

...NORTHEAST IOWA...


CITY           SKY/WX    TMP DP  RH WIND       PRES   REMARKS
DECORAH        CLOUDY    52  37  58 E14G23    29.78R
MASON CITY     CLOUDY    54  41  61 E18       29.80R
CHARLES CITY   CLOUDY    52  39  62 NE18G24   29.78R
OELWEIN        CLOUDY    52  39  62 E21G28    29.75R
$$

...ELSEWHERE IN IOWA...


CITY           SKY/WX    TMP DP  RH WIND       PRES   REMARKS
DES MOINES     CLOUDY    50  45  83 NE14      29.71R
IOWA CITY      CLOUDY    50  44  80 E14G22    29.72R
FORT DODGE     CLOUDY    55  41  58 E20G25    29.77R
$$

...NORTHERN ILLINOIS...


CITY           SKY/WX    TMP DP  RH WIND       PRES   REMARKS
CHICAGO-OHARE  CLOUDY    47  40  76 E18G25    29.72S
CHICAGO-MIDWAY PTSUNNY   48  43  82 NE24G32   29.72S
MOLINE         CLOUDY    49  43  80 E15G25    29.70R
ROCKFORD       CLOUDY    50  39  66 NE23G30   29.75S
PEORIA         CLOUDY    50  44  80 NE16      29.64R
$$

NOTE: "FAIR" INDICATES FEW OR NO CLOUDS BELOW 12,000 FEET WITH NO
SIGNIFICANT WEATHER AND/OR OBSTRUCTIONS TO VISIBILITY. WIND
SPEEDS ARE IN MILES-PER-HOUR.



USA.gov is the U.S. government's official web portal to all federal, state and local government web resources and services.